TimeWET,TemperatureF,Dew PointF,Humidity,Sea Level PressureIn,VisibilityMPH,Wind Direction,Wind SpeedMPH,Gust SpeedMPH,PrecipitationIn,Events,Conditions,WindDirDegrees,DateUTC
12:00 AM,48,42,72,30.19,6,ENE,4.6,,,,,60,2012-12-19 00:00:00
12:00 AM,-9999,-9999,N/A,0.00,-9999.0,North,-9999.0,-,N/A,,Clear,0,2012-12-19 00:00:00
1:00 AM,50.0,41.0,71,30.15,-9999.0,East,6.9,-,N/A,,Clear,100,2012-12-19 01:00:00
2:00 AM,48.2,42.8,82,30.18,-9999.0,ENE,4.6,-,N/A,,Clear,60,2012-12-19 02:00:00
3:00 AM,47,40,67,30.18,6,East,6.9,,,,,80,2012-12-19 03:00:00
3:00 AM,46.4,39.2,76,30.15,-9999.0,East,6.9,-,N/A,,Clear,80,2012-12-19 03:00:00
4:00 AM,50.0,39.2,66,30.15,-9999.0,East,11.5,-,N/A,,Clear,90,2012-12-19 04:00:00
5:00 AM,50.0,39.2,66,30.15,-9999.0,East,9.2,-,N/A,,Clear,90,2012-12-19 05:00:00
6:00 AM,48,38,60,30.17,6,East,8.1,,,,,80,2012-12-19 06:00:00
6:00 AM,48.2,39.2,71,30.15,-9999.0,East,8.1,-,N/A,,Clear,80,2012-12-19 06:00:00
7:00 AM,48.2,37.4,66,30.15,-9999.0,East,9.2,-,N/A,,Unknown,80,2012-12-19 07:00:00
8:00 AM,48.2,39.2,71,30.18,-9999.0,East,9.2,-,N/A,,Clear,90,2012-12-19 08:00:00
9:00 AM,56,40,44,30.20,6,East,9.2,,,,,80,2012-12-19 09:00:00
10:00 AM,60.8,41.0,48,30.21,-9999.0,NE,9.2,-,N/A,,Clear,50,2012-12-19 10:00:00
11:00 AM,68.0,41.0,37,30.21,-9999.0,ENE,6.9,-,N/A,,Clear,70,2012-12-19 11:00:00
12:00 PM,74,37,16,30.20,6,East,4.6,,,,,80,2012-12-19 12:00:00
12:00 PM,75.2,37.4,25,30.18,-9999.0,East,4.6,-,N/A,,Clear,80,2012-12-19 12:00:00
1:00 PM,78.8,39.2,24,30.18,-9999.0,Variable,2.3,-,N/A,,Clear,0,2012-12-19 13:00:00
2:00 PM,80.6,30.2,16,30.15,-9999.0,WSW,5.8,-,N/A,,Clear,250,2012-12-19 14:00:00
3:00 PM,81,32,9,30.14,6,West,5.8,,,,,280,2012-12-19 15:00:00
3:00 PM,80.6,32.0,17,30.15,-9999.0,West,5.8,-,N/A,,Clear,280,2012-12-19 15:00:00
4:00 PM,80.6,28.4,15,30.12,-9999.0,WNW,11.5,-,N/A,,Clear,290,2012-12-19 16:00:00
5:00 PM,77.0,32.0,19,30.12,-9999.0,West,9.2,-,N/A,,Clear,280,2012-12-19 17:00:00
6:00 PM,70,34,16,30.15,6,SW,5.8,,,,,230,2012-12-19 18:00:00
6:00 PM,69.8,33.8,27,30.15,-9999.0,SW,5.8,-,N/A,,Clear,230,2012-12-19 18:00:00
7:00 PM,64.4,32.0,30,30.15,-9999.0,South,5.8,-,N/A,,Clear,190,2012-12-19 19:00:00
8:00 PM,62.6,33.8,34,30.15,-9999.0,South,6.9,-,N/A,,Clear,190,2012-12-19 20:00:00
9:00 PM,55,36,36,30.19,6,NE,3.5,,,,,40,2012-12-19 21:00:00
9:00 PM,55.4,35.6,47,30.18,-9999.0,NE,3.5,-,N/A,,Clear,40,2012-12-19 21:00:00
10:00 PM,53.6,35.6,51,30.18,6.2,East,4.6,-,N/A,,Unknown,100,2012-12-19 22:00:00
11:00 PM,48.2,37.4,66,30.18,-9999.0,NE,4.6,-,N/A,,Clear,50,2012-12-19 23:00:00